Portada
METAR-TAF:

METAR-TAF

Aeropuertos :

Valence, Francia

latitud: 44-54-58N, longitud: 4-58-06E, altitud: 160 m

Observación

El informe se hizo hace 31 minutos, a las 09:00 UTC
Viento 4 kt del norte-noroeste
Temperatura 9°C
Humedad 93%
Presión 1019 hPa
Visibilidad: 1600 m
Cielo cubierto a una altura de 300 ft
neblina

METAR: LFLU 170900Z AUTO 34004KT 1600 BR OVC003 09/08 Q1019

Hora: 10:31 (09:31 UTC)


TAF: falta

Observaciones y pronósticos meteorológicos de más de 4000 aeropuertos (mensajes METAR y TAF).

Los puntos amarillos y rojos representan las estaciones disponibles.

Ponga el ratón en el punto deseado para ver el nombre de la estación.

Haga clic para ver las observaciones y los pronósticos meteorológicos.

Para cambiar el mapa : haga clic en los botones verdes con una cruz de color negro para hacer un zoom, en el botón verde con un guión para alejar o en las flechas verdes para mapas adyacentes.


METAR-TAF: